Wind_Speed
8 6 4 1 3 2 4 4 2 3 3 3 4 4 18 7 11 3 1 20 14 27 32 35 33 31 30 28 27 25 25 25 25 24 22 21 20 18 17 16 14 12 10 8 7 6 6 5 5
9 8 2 2 3 5 4 3 7 7 1 8 5 4 5 5 3 1 7 18 16 27 32 35 34 31 31 30 29 27 26 25 23 22 20 19 18 17 15 14 13 12 11 10 9 8 6 4 4
9 4 3 3 3 8 3 6 5 4 9 4 1 2 2 1 2 3 6 21 18 25 29 34 34 32 31 31 30 29 27 26 25 23 21 19 17 16 14 13 13 13 12 11 10 9 7 6 4
5 3 2 4 12 9 4 5 3 5 3 5 2 3 2 2 2 6 16 22 19 23 26 33 35 34 33 33 32 30 29 28 27 25 23 21 20 18 16 14 13 12 11 12 11 9 8 7 6
2 1 4 5 11 7 7 9 9 9 6 2 4 2 2 1 3 8 17 21 18 20 23 30 36 35 34 33 32 31 30 28 28 26 25 23 21 19 18 16 15 12 11 11 11 9 8 7 6
2 1 4 15 14 10 9 10 6 7 3 2 3 4 2 2 6 10 17 21 17 19 22 26 36 36 36 34 33 31 31 30 29 28 26 24 23 22 20 18 16 13 13 12 10 9 8 7 7
4 4 8 4 7 6 16 9 8 8 3 8 4 2 2 5 3 7 12 15 16 15 19 24 27 36 37 34 33 32 32 31 30 29 28 26 24 24 21 19 15 14 13 11 10 9 8 8 8
3 3 7 8 10 10 3 3 5 14 7 4 3 4 3 3 6 7 8 10 11 13 15 19 25 26 29 28 35 34 34 34 33 31 30 28 26 24 22 18 16 15 14 12 10 9 7 6 7
4 6 11 16 11 5 1 2 1 6 5 3 4 4 5 7 10 8 5 6 9 12 17 21 25 28 28 27 29 37 36 35 34 33 32 29 24 23 21 20 18 16 14 13 11 9 8 6 6
10 10 16 8 12 6 5 5 3 4 5 4 6 5 6 3 4 3 4 9 11 15 19 22 27 31 30 28 28 30 30 33 35 34 30 30 24 22 21 20 20 16 14 12 11 10 9 7 6
10 19 18 16 13 11 15 14 5 7 12 11 8 13 8 7 11 10 12 13 16 16 16 22 25 28 30 29 30 31 30 32 34 32 31 28 25 23 22 18 17 14 14 11 11 11 10 9 7
14 19 20 15 6 7 12 12 17 15 17 13 15 16 15 14 11 10 14 17 25 20 23 20 23 28 34 31 31 30 32 33 34 32 32 31 28 25 24 20 17 14 11 12 12 11 11 10 10
22 22 14 21 13 14 7 21 21 22 17 19 20 19 18 18 14 15 17 21 23 22 26 26 22 25 30 34 31 33 37 36 36 31 33 38 33 33 28 26 24 22 16 14 13 14 13 11 11
11 19 22 16 17 19 18 26 21 22 14 16 17 19 19 18 16 19 17 20 21 29 30 26 23 24 28 33 37 42 38 37 33 33 35 39 35 32 27 27 27 27 23 15 16 17 15 14 12
15 17 12 15 23 19 11 23 36 22 20 25 23 22 23 22 23 21 24 22 25 25 24 27 29 27 30 33 38 38 37 33 33 34 34 33 40 34 33 28 29 29 25 22 22 17 13 12 12
11 13 22 24 13 9 17 32 32 24 23 27 25 23 22 24 21 24 21 21 24 25 25 27 31 29 27 28 35 34 31 31 31 29 28 29 30 29 29 30 28 31 27 27 19 14 13 14 12
13 21 26 22 21 19 18 34 22 11 10 20 19 17 16 17 17 19 20 21 28 28 28 35 29 25 27 25 28 27 27 28 25 24 25 24 27 27 27 31 32 32 30 20 16 14 14 16 12
17 19 19 18 15 22 28 34 24 18 18 20 19 20 21 22 21 23 23 20 23 33 35 31 30 26 22 19 19 19 20 22 22 22 22 22 24 25 27 28 30 28 20 18 19 16 14 13 9
11 11 17 16 7 20 26 28 25 22 21 23 21 20 22 22 19 24 24 26 29 26 30 33 25 25 13 12 14 17 21 19 19 19 19 22 21 22 24 22 23 22 22 21 19 17 13 10 9
18 16 9 8 9 7 13 18 15 16 20 21 20 22 22 23 21 18 24 26 25 29 34 32 26 23 18 17 14 9 13 15 16 16 18 20 20 21 21 20 20 21 19 17 17 18 9 8 10
18 22 20 11 9 15 14 24 24 22 22 23 23 23 23 23 22 20 21 24 25 23 31 24 25 20 17 16 13 10 11 7 13 17 17 18 19 19 20 21 24 28 21 21 18 15 13 10 7
17 8 11 16 13 13 3 11 16 16 21 21 21 20 22 23 22 22 21 18 22 24 20 26 29 21 15 17 17 18 14 13 10 14 15 17 17 17 18 20 22 22 20 20 17 15 11 10 9
16 16 12 9 10 11 17 10 15 10 17 14 15 20 22 21 21 22 22 20 24 19 19 17 18 16 15 17 17 18 13 11 13 14 16 17 16 17 17 19 20 21 21 19 14 12 12 11 8
10 13 17 14 11 14 17 11 22 16 18 17 18 19 17 16 15 17 17 16 15 10 10 8 6 7 14 18 18 18 16 14 15 17 16 15 15 16 16 18 18 17 15 14 12 10 11 10 9
8 8 7 11 12 17 8 13 23 4 8 14 8 13 17 17 13 11 9 7 6 6 4 3 6 9 13 15 16 15 15 14 17 20 20 20 18 16 17 17 16 13 13 11 10 10 9 9 9
11 16 7 13 12 15 12 13 8 11 8 13 11 14 15 16 14 11 6 4 3 4 5 7 10 13 14 15 15 14 14 14 18 21 22 18 17 17 17 15 14 12 11 10 9 8 8 8 8
11 8 18 5 4 7 11 15 14 19 13 8 10 14 17 17 11 7 4 4 7 7 9 13 14 14 15 17 16 15 15 19 20 18 16 17 17 16 15 14 12 11 10 10 8 8 8 7 9
2 1 9 8 6 8 8 16 8 9 6 9 15 19 19 16 2 6 8 9 10 12 14 14 14 16 17 18 17 17 17 17 18 17 17 17 16 14 13 12 11 9 9 8 9 8 9 9 8
4 8 6 6 11 3 2 3 1 8 9 14 17 21 20 11 3 8 10 11 13 14 15 16 17 18 19 18 18 18 17 17 18 18 17 16 15 14 13 11 10 9 8 9 9 9 9 9 7
5 5 10 9 18 10 8 5 4 12 11 16 21 22 17 7 3 7 11 12 15 16 17 16 17 18 18 19 20 20 19 19 19 17 15 15 15 13 13 11 9 7 7 8 8 8 7 9 9
Wind_Direction
187 174 159 130 192 240 243 246 267 245 199 166 140 194 187 181 167 198 60 169 165 172 174 180 179 177 181 181 181 177 176 175 175 175 175 173 172 174 174 172 170 172 173 168 166 163 156 148 145
167 151 109 116 233 211 221 232 220 221 238 320 181 160 183 216 243 131 131 172 168 175 180 182 184 184 184 184 184 184 181 180 179 177 176 175 173 172 173 173 170 167 168 167 163 159 155 154 150
161 186 193 195 213 219 235 197 227 287 294 258 272 179 187 230 209 168 178 169 169 179 184 187 188 189 190 189 186 188 186 184 183 182 180 178 178 177 175 175 175 175 169 168 171 169 167 163 163
185 168 121 222 229 238 242 190 111 315 19 195 210 223 208 220 256 156 163 172 173 182 188 193 193 195 195 195 191 191 190 189 187 185 183 183 182 180 177 178 181 177 174 174 177 180 183 178 177
144 263 214 239 243 252 255 268 291 296 292 197 193 219 188 99 118 151 166 179 180 182 194 199 199 200 201 200 197 196 195 194 193 190 189 186 186 182 181 180 180 181 185 186 185 189 194 198 201
174 262 216 230 240 254 265 264 263 254 275 99 174 150 138 115 169 166 174 184 189 193 201 201 202 204 207 206 203 203 201 200 200 196 195 194 189 187 186 184 180 179 187 193 197 199 209 214 224
225 199 233 255 248 255 255 246 231 236 201 94 118 178 41 13 261 162 170 183 194 201 208 206 204 208 213 212 210 208 208 208 206 203 201 201 197 194 191 188 182 182 188 195 198 206 213 227 240
204 216 224 224 236 250 245 248 266 217 209 130 182 146 130 7 137 146 158 183 200 212 212 210 207 210 212 215 217 216 215 215 212 210 208 207 204 200 197 190 189 189 189 194 200 208 217 234 247
154 226 234 228 208 225 257 268 250 333 283 292 208 183 123 130 130 132 152 201 217 221 222 220 217 216 214 214 218 221 221 222 220 218 216 212 205 204 203 201 198 194 193 194 199 208 219 235 250
202 220 226 226 210 209 231 243 270 308 281 280 261 54 1 158 64 16 222 233 233 238 233 227 227 224 220 218 221 219 220 220 220 218 214 212 207 204 203 207 206 203 201 201 207 213 221 231 231
213 230 230 230 224 227 255 267 266 251 259 240 273 307 321 314 317 320 301 282 290 273 245 242 237 233 228 225 223 220 221 221 220 218 214 211 208 209 207 208 209 208 209 209 217 222 220 229 234
239 232 236 245 227 226 248 266 254 251 251 279 282 288 288 276 276 281 286 280 291 283 265 254 255 247 242 232 228 228 219 221 221 217 214 209 210 209 205 205 203 202 209 215 213 219 223 228 240
235 240 235 243 241 235 253 259 266 261 262 277 281 279 281 285 284 274 270 275 274 275 267 267 257 253 250 243 234 232 227 224 223 217 214 213 210 210 205 203 206 206 206 220 221 222 224 227 238
231 241 246 245 235 239 243 258 261 261 267 263 271 277 278 276 280 277 267 267 265 269 264 269 258 260 255 252 246 240 231 226 223 219 216 217 212 214 209 205 208 210 212 218 228 223 220 217 226
256 253 236 232 235 236 228 265 252 254 263 268 268 266 270 270 270 261 262 253 259 260 269 267 274 267 258 254 254 242 234 226 223 221 218 216 216 214 206 208 213 216 216 227 229 234 233 238 230
231 235 241 229 214 232 199 252 252 254 247 249 254 258 260 261 258 258 255 260 266 270 263 272 275 273 262 255 253 242 231 227 225 223 219 216 212 211 206 211 215 220 219 224 225 224 233 238 235
219 232 228 238 221 221 210 246 248 238 233 247 256 259 261 268 267 262 255 256 267 270 277 284 281 277 277 267 248 241 232 229 226 222 219 214 208 206 207 217 221 221 221 223 221 223 228 238 237
229 237 251 239 218 217 228 246 250 247 274 265 265 268 271 272 270 274 272 266 269 278 280 278 285 291 284 262 243 232 229 228 220 219 215 205 202 200 212 217 217 215 209 212 215 223 232 244 246
264 262 247 240 211 222 226 243 244 244 256 263 267 268 268 269 276 274 270 273 275 272 281 286 285 297 276 219 215 224 222 218 216 213 205 199 201 207 208 206 206 203 209 216 208 217 221 227 238
241 247 242 268 254 255 250 261 257 251 255 261 264 268 270 275 274 273 272 270 271 275 282 280 287 293 270 225 217 207 199 214 211 204 198 198 205 204 199 195 192 199 200 200 202 209 212 213 236
233 238 239 250 284 283 273 273 265 255 255 257 256 261 264 264 269 269 268 267 268 266 273 281 293 289 269 229 197 170 156 151 185 198 194 197 197 196 191 185 192 193 191 203 204 223 213 224 213
237 220 229 238 243 249 256 279 268 260 258 251 258 256 257 259 256 256 260 261 258 266 275 284 288 277 255 216 197 185 191 174 191 180 192 189 184 182 182 184 187 185 186 200 214 220 213 221 228
243 228 251 263 251 262 253 277 261 250 263 263 260 253 256 257 260 261 261 260 265 271 284 284 283 260 226 200 191 182 187 177 170 169 168 169 165 171 166 172 177 183 192 201 209 201 208 211 216
243 210 220 232 245 247 244 236 278 261 263 259 262 267 265 281 275 251 256 261 267 272 280 285 260 207 188 183 184 185 180 164 155 158 150 152 152 157 159 165 170 179 184 191 201 203 198 201 209
232 210 184 210 217 237 233 210 240 166 289 293 283 298 288 285 273 267 271 256 271 268 249 211 166 150 160 166 171 175 173 163 155 153 148 144 144 148 153 162 172 174 182 188 187 191 196 199 207
214 209 202 203 210 235 215 224 243 260 279 285 288 298 304 293 285 264 255 234 211 176 144 127 126 133 145 146 142 150 148 146 146 146 144 143 143 143 154 159 169 177 177 175 186 191 198 205 217
190 200 225 301 223 226 198 246 271 274 272 312 347 335 328 312 289 230 162 153 150 122 136 129 130 129 133 129 128 131 138 138 137 138 137 132 131 141 151 162 165 167 174 185 194 203 206 216 223
261 282 190 211 220 213 213 236 242 195 82 23 360 349 330 326 229 148 149 144 129 134 121 123 124 122 122 119 125 130 133 135 134 131 129 131 138 145 154 159 162 170 183 194 205 212 217 215 221
326 234 229 251 237 286 273 170 323 130 59 6 357 350 348 339 145 154 140 133 130 123 120 117 117 117 117 122 125 125 125 125 126 128 130 135 144 149 149 154 164 179 187 206 222 233 235 229 219
280 289 255 241 221 241 286 277 145 97 21 356 349 348 354 354 137 148 138 134 133 126 123 123 122 120 122 123 119 116 121 125 127 131 135 138 140 143 151 158 164 179 208 225 237 242 233 238 223
Height
785 786 787 786 796 797 794 782 771 768 763 749 749 752 749 743 756 770 741 743 745 749 755 761 763 766 771 775 778 780 782 784 786 789 791 791 792 795 796 796 797 798 801 802 805 806 808 809 810
784 786 786 786 798 800 782 773 771 757 749 745 744 747 750 750 740 737 741 743 745 748 753 758 762 766 768 772 776 778 781 783 786 788 790 792 794 795 796 797 797 798 800 802 804 806 807 809 810
785 786 783 787 796 792 777 768 762 754 746 747 744 739 743 744 739 737 739 741 745 749 753 756 761 764 767 771 773 776 779 781 784 786 788 791 793 795 796 797 798 800 799 800 802 804 805 807 809
787 785 786 793 790 780 772 758 756 755 744 742 741 747 739 735 738 737 738 741 745 749 752 755 759 762 764 767 769 773 777 780 782 785 787 789 792 793 795 797 799 799 800 801 803 804 805 805 806
786 783 788 793 786 773 765 758 756 756 750 744 741 746 742 735 736 737 739 742 745 747 752 754 757 761 765 768 768 769 774 778 781 783 785 786 789 792 793 795 796 798 801 802 802 803 804 804 805
787 786 793 790 779 768 761 752 753 751 745 743 745 744 739 736 737 736 738 741 744 745 749 753 757 760 763 765 768 770 772 775 779 781 783 785 786 789 791 793 794 796 798 800 802 802 803 804 805
782 784 786 788 780 769 758 749 751 746 745 742 736 747 739 737 740 738 740 742 744 746 748 752 755 758 763 765 768 769 772 774 776 779 781 783 784 785 788 790 792 794 796 799 800 801 802 803 804
776 779 782 780 779 769 752 748 742 742 744 734 734 747 746 738 738 739 741 743 744 746 747 751 753 756 761 763 765 767 769 771 773 775 778 779 782 784 786 787 790 791 793 796 797 799 800 801 802
774 782 778 771 775 764 750 752 743 739 740 738 734 732 733 737 737 739 742 745 745 744 745 747 749 753 756 758 759 763 766 768 771 773 776 779 781 783 786 786 787 789 791 792 795 797 799 800 801
769 772 766 754 755 756 751 752 746 747 745 742 737 736 737 738 736 735 736 739 741 741 742 743 744 746 750 753 755 757 761 763 765 768 771 775 779 781 783 785 787 788 790 792 794 796 798 798 800
760 757 751 746 746 747 747 747 743 747 747 738 737 732 737 737 735 736 737 738 737 737 736 736 739 743 746 747 748 750 754 758 758 762 766 771 774 776 780 785 787 788 789 791 793 796 796 798 798
760 748 746 743 747 749 749 740 742 741 736 732 734 734 734 735 733 733 735 737 737 733 731 731 733 736 737 741 742 744 745 749 751 754 759 765 768 772 775 779 784 786 789 790 791 793 794 794 796
754 745 745 743 745 747 746 740 736 732 731 729 729 730 729 725 726 729 733 732 731 730 727 728 728 729 730 732 735 736 736 739 742 747 750 754 757 760 767 770 775 777 780 786 788 789 789 790 793
740 745 745 741 742 744 749 738 738 723 725 726 725 723 721 722 722 724 725 725 726 725 724 724 725 724 725 724 724 725 728 730 735 738 740 743 749 755 762 765 768 769 772 780 784 784 784 783 787
747 751 746 743 740 741 744 746 720 725 725 722 720 718 716 715 717 716 717 719 718 719 719 720 720 719 718 716 716 718 718 722 726 729 733 736 740 747 751 759 764 767 768 773 777 781 784 786 783
750 750 749 730 739 736 744 732 708 714 718 716 714 710 710 707 708 710 711 711 711 713 713 714 712 710 709 708 709 710 713 714 717 722 727 730 736 742 747 754 757 762 764 767 774 776 781 781 781
745 735 732 733 726 734 737 714 709 708 710 706 706 707 706 703 702 704 704 705 705 705 705 704 702 701 700 701 703 705 707 709 713 718 722 725 730 736 743 748 752 757 761 767 771 774 775 776 777
737 739 731 731 726 728 728 711 711 707 711 707 704 702 701 699 696 697 697 698 698 697 695 695 693 691 692 695 697 701 701 704 708 711 715 719 724 730 737 741 746 751 758 761 764 768 771 772 774
739 736 733 726 724 722 719 714 709 710 709 706 702 700 697 693 691 691 691 690 689 688 687 684 683 684 685 690 694 694 694 699 703 706 710 715 721 726 731 737 743 748 754 760 761 764 768 770 771
741 742 741 736 728 731 723 719 713 711 706 702 701 695 691 687 684 684 684 682 681 679 677 676 676 678 678 681 682 686 689 694 699 703 706 712 717 721 726 733 740 745 752 757 759 761 765 767 768
737 738 737 740 731 723 725 715 708 699 695 693 690 686 683 680 678 676 673 672 672 672 670 670 670 671 671 674 678 681 687 691 695 699 703 707 712 717 721 728 733 737 747 752 755 758 760 763 765
738 732 731 733 736 735 723 718 697 690 688 686 683 680 675 671 668 664 663 664 665 664 665 664 663 664 665 668 672 674 679 685 690 696 700 704 710 715 719 725 732 738 743 748 752 754 757 759 761
731 729 732 734 734 734 726 732 683 679 680 676 674 669 664 661 660 659 657 657 657 658 658 657 655 656 660 663 668 672 678 682 688 693 698 703 709 713 720 724 732 737 740 744 749 752 755 757 758
722 724 727 731 733 736 725 731 678 676 671 670 662 660 659 655 654 652 651 652 652 653 653 652 652 652 656 660 665 670 676 680 686 692 697 703 708 714 719 725 731 735 739 743 747 750 752 754 756
725 728 732 739 733 725 708 722 681 667 672 668 663 657 654 650 649 646 646 646 647 649 650 651 651 653 656 659 665 669 674 679 685 691 696 702 708 713 718 724 729 734 738 742 745 748 749 751 753
718 720 713 724 717 711 713 707 678 665 661 658 659 653 649 646 642 642 642 644 646 649 649 649 651 655 659 663 666 671 675 681 687 691 696 703 708 713 719 724 729 733 737 741 743 745 747 748 750
712 718 707 716 710 708 697 685 672 665 661 658 657 653 647 640 638 638 643 645 648 648 650 652 656 659 662 664 669 674 678 683 689 694 699 704 709 715 720 725 730 733 737 739 740 742 744 746 748
715 705 716 713 714 709 686 686 674 664 665 665 660 657 647 640 637 640 644 648 649 651 652 657 660 663 665 667 673 678 683 687 691 696 701 706 712 717 722 726 730 733 735 737 738 739 741 743 745
734 712 707 703 700 696 690 672 661 664 671 667 659 653 646 641 638 644 645 648 651 653 657 660 663 666 669 674 678 682 687 691 696 700 705 710 714 719 723 727 730 733 734 735 736 737 738 739 741
718 713 705 703 703 699 699 683 658 665 667 666 659 651 648 647 647 648 648 648 652 656 660 664 667 671 675 678 681 686 691 696 700 705 709 713 717 721 725 728 731 732 734 734 734 735 736 736 737